Location: Chandrammap?lem
(16.9200°N, 81.0051°E)
Time: 10:08:37
(UTC+00:00)

Cosmos 1934 Rocket - Pass Details

Date: 29 May 2024
Orbit: 938 x 998 km, 83.0° (Epoch: 14 June)

Event Time Altitude Azimuth Distance (km) Brightness Sun altitude
Rises 22:49:48 0° 177° (S) 3,614 6.7 -16.3°
Reaches altitude 10° 22:52:17 10° 174° (S) 2,677 6.1 -15.8°
Maximum altitude 22:58:22 68° 92° (E) 1,033 4.3 -14.5°
Drops below altitude 10° 23:04:33 10° 11° (N) 2,723 6.9 -13.2°
Sets 23:07:05 0° 9° (N) 3,680 7.6 -12.7°
